LAPAN-A2 (40931 NORAD) Tracking and Keplerian Element Data

This shows tracking and keplerian element data for the satellite.

Feedback or suggestion? Click here.




ElementValue
Catalog40931
NameLAPAN-A2
Epoch Orbit38654
Epoch Day325.12417496
Epoch Year2022
RAAN131.4032
Inclination5.9957
Eccentricity0.0013022
Argument of Perigee232.2017
Mean Anonmoly127.6957
Mean Motion14.7692408
Decay Rate1.011E-05
L11 40931U 15052B 22325.12417496 .00001011 00000+0 51237-4 0 9992
L22 40931 5.9957 131.4032 0013022 232.2017 127.6957 14.76924080386547



Live tracking and technical data element details for LAPAN-A2 (NORAD 40931). LAPAN-A2 can be tracked NOW for your location showing map with azimuth and elevation plus other details from your city location.







IsCatalogInMostPopularTable: catalog: 40931, numindb: 695
Update: records affected: 1



GetName: 40931 LAPAN-A2

Hit Count: updated at: Mon, 28 Nov 2022 05:09:23 GMT